NWS Home NWS Lubbock West Texas Mesonet North Sector Latest Conditions as of 0537 PM, Tue Jan 16, 2018

Latest   N   C   S   Daily Sum   3hrΔ   24hrΔ   Soil Data 
Site Map   24hr Precip   72hr Precip   Google Plot


Station Time of Last Temp Dew Pt. RH Wind Direction Wind Speed Wind Gust Max Wind Max Temp Min Temp Max RH Min RH Altimeter 1HR Rain Today's Rain Solar Rad Wind Chill
Adrian 6WSW  05:30 PM 31 8 39% SW33 16 mph 242° @ 0120 PM 32 3 69 36 30.47" 0 0.00 97  
Aiken 3WSW  05:30 PM 28 0 29% NE66 25 mph 22° @ 0333 AM 29 12 45 27 30.55" 0 0.00 78 22
Amarillo 15NNW   05:30 PM 29 2 32% SE23 15 mph 14° @ 1209 AM 30 0 75 28 30.53" 0 0.00 94  
Amarillo 7SSE  05:30 PM 26 -1 31% NE23 17 mph 16° @ 0124 AM 28 3 65 28 30.53" 0 0.00 84  
Amarillo 9NNE  05:30 PM 25 0 32% E44 15 mph 22° @ 1239 AM 29 -1 80 28 30.54" 0 0.00 70  
Amherst 1NE  05:30 PM 31 4 30% SE12 20 mph 12° @ 0100 AM 32 15 42 30 30.52" 0 0.00 73  
Bootleg 11WNW  05:30 PM 30 6 35% SW57 16 mph 242° @ 0326 PM 33 10 52 33 30.48" 0 0.00 77 24
Boys Ranch 1WSW  05:30 PM 29 4 35% E33 12 mph 59° @ 1252 AM 31 0 77 28 30.54" 0 0.00 101  
Canadian 6E  05:30 PM 21 -12 22% N45 25 mph 357° @ 0433 AM 24 -1 71 20 30.58" 0 0.00 50  
Caprock Canyons State Park  05:30 PM 28 -5 23% N56 24 mph 358° @ 0258 AM 30 10 62 20 30.60" 0 0.00 56  
Childress 2NNE  05:30 PM 26 -18 13% N68 24 mph 357° @ 1205 AM 28 4 66 12 30.64" 0 0.00 74 19
Clarendon 2WSW  05:30 PM 26 -7 23% N45 20 mph 359° @ 1100 AM 28 -3 77 20 30.57" 0 0.00 63  
Claude 12SW  05:30 PM 25 -2 30% NE44 20 mph 6° @ 1242 AM 27 3 68 28 30.53" 0 0.00 83  
Dimmitt 2NE  05:30 PM 29 5 36% SW34 24 mph 13° @ 0425 AM 29 11 46 33 30.50" 0 0.00 100  
Dozier 3W  05:30 PM 26 -17 14% NE67 24 mph 360° @ 1013 AM 29 6 60 13 30.62" 0 0.00 73 19
Earth 9WSW  05:30 PM 28 4 36% NE55 20 mph 14° @ 0157 AM 31 15 44 30 30.52" 0 0.00 28  
Endee NM 2SW  05:30 PM 35 11 36% S34 18 mph 48° @ 0450 AM 37 9 59 34 30.47" 0 0.00 93  
Floydada 2NNE  05:30 PM 27 -2 27% N68 27 mph 14° @ 0305 AM 30 10 49 23 30.54" 0 0.00 68 20
Friona 2NE  05:30 PM 29 7 37% S68 19 mph 28° @ 0515 AM 31 12 51 34 30.49" 0 0.00 95 23
Goodlett 3W  05:30 PM 27 -17 14% N79 26 mph 2° @ 1205 AM 29 4 65 13 30.65" 0 0.00 70 20
Goodnight  05:30 PM 25 -3 29% N34 23 mph 345° @ 0851 AM 28 2 75 23 30.57" 0 0.00 57  
Happy 1E  05:30 PM 27 2 33% NE44 22 mph 14° @ 0423 AM 30 7 57 29 30.52" 0 0.00 95  
Hart 3N  05:30 PM 28 5 36% N46 23 mph 19° @ 0430 AM 30 11 48 31 30.51" 0 0.00 93  
Hereford 2NW  05:30 PM 31 5 32% SE56 19 mph 33° @ 0420 AM 32 9 49 31 30.49" 0 0.00 99  
Lesley 2S  05:30 PM 30 -8 19% N33 17 mph 322° @ 1235 PM 32 5 64 17 30.62" 0 0.00 78  
McLean 1E  05:30 PM 24 -17 16% N68 27 mph 349° @ 1005 AM 27 3 64 13 30.56" 0 0.00 41 17
Memphis 1NE  05:30 PM 28 -16 13% NE57 19 mph 0° @ 0220 AM 30 1 68 13 30.62" 0 0.00 53 22
Muleshoe 2SSW  05:30 PM 33 6 31% S23 16 mph 24° @ 0410 AM 33 16 47 31 30.51" 0 0.00 96  
Northfield 1S  05:30 PM 28 -11 17% NE46 24 mph 3° @ 0315 AM 30 8 53 16 30.63" 0 0.00 63  
Odell 4ENE  05:30 PM 25 -7 24% N67 23 mph 6° @ 0246 AM 28 4 68 19 30.69" 0 0.00 49 17
Olton 6S  05:30 PM 29 3 32% NW34 23 mph 16° @ 0200 AM 30 14 43 30 30.52" 0 0.00 84  
Palo Duro 4E (JA Ranch)  05:30 PM 28 -5 24% N34 17 mph 8° @ 1159 AM 31 -2 77 19 30.59" 0 0.00 69  
Palo Duro Canyon SP Floor  05:30 PM 29 1 29% SE22 17 mph 330° @ 1231 PM 33 7 58 24 30.56" 0 0.00 24  
Palo Duro Canyon State Park Rim  05:30 PM 28 0 30% N00 19 mph 14° @ 0147 AM 29 5 60 27 30.54" 0 0.00 84  
Pampa 2E  05:30 PM 21 -8 27% N46 23 mph 345° @ 1240 PM 24 -2 82 23 30.55" 0 0.00 62  
Panhandle 1SSW  05:30 PM 23 -2 32% NW45 22 mph 0° @ 1026 AM 26 2 71 27 30.54" 0 0.00 70  
Plainview 1S  05:30 PM 29 1 30% NE46 23 mph 15° @ 0135 AM 30 12 48 29 30.53" 0 0.00 83  
Silverton 7ESE  05:30 PM 26 -7 24% NE57 23 mph 360° @ 0400 AM 28 7 55 23 30.56" 0 0.00 78 20
Stinnett 1NNW  05:30 PM 23 -2 33% N22 20 mph 347° @ 0647 AM 26 0 74 28 30.54" 0 0.00 60  
Tulia 2ENE  05:30 PM 28 3 35% NE46 25 mph 4° @ 0430 AM 30 10 57 32 30.53" 0 0.00 83  
Turkey 2WSW  05:30 PM 28 -7 22% NE57 28 mph 2° @ 0410 AM 29 8 64 20 30.59" 0 0.00 71 22
Umbarger 3NNE  05:30 PM 31 6 34% SE11 17 mph 22° @ 0248 AM 32 4 65 31 30.51" 0 0.00 83  
Vigo Park  05:30 PM 26 -1 30% NE24 20 mph 18° @ 1241 AM 29 5 62 27 30.55" 0 0.00 80  

West Texas Mesonet Home   Site Map/Menu  NWS Lubbock Soil Data  Daily Summary Page  24hr Precip  72hr Precip  Google Plot